Showing default

OPS 9432 (DSCS 2-2), 5588

Orbit data source: Space-Track

OPS 9432 (DSCS 2-2), 5588 is an American payload satellite in GEO that was launched on Wed, 03 Nov 1971 UTC via a TITAN IIIC launch vehicle from the Air Force Eastern Test Range (AFETR). Payload-class satellites include a variety of spacecraft equipped with specific instruments for various scientific and technological missions. These include communications satellites like Starlink; space stations such as the ISS; scientific satellites like the Hubble; Earth observation satellites from companies like Planet Labs, Umbra, and HawkEye 360; GPS; miniature CubeSats for education and research; and military/defense satellites.

Not visible in the next 10 days
Identifier
5588, 1971-095B
Orbit
GEO
Country
Flag of USUS
Related business
Manufacturer
TRW
Mission
Non-operational spacecraft
Bus & Motor
DSCS II, Unknown motor
Mass
526 kg wet, ~500 kg dry
Launch date (UTC)
1971-11-03 (54 years ago)
Launch vehicle
TITAN IIIC
Launch site
Air Force Eastern Test Range (AFETR)
Object type
Payload
Rocket body
Debris
Shape & HBR
Unknown
Radar Cross Section
Large (>1 m²)

Expand to show TLE details & history
Last TLE update: 1 day ago

TLE from 1 day ago
0 OPS 9432 (DSCS 2-2)
1  5588U 71095B   25304.59003292 -.00000198  00000-0  00000+0 0  9990
2  5588   2.1376 262.3550 0003711  27.9898 111.2900  1.00278647 45070
Epoch: 2025-10-31T14:09Z
TLE epoch observation values (Epoch: 2025-10-31T14:09:38.844Z)
Latitude
1.40027°
Longitude
149.1118°
Altitude
35,789.666 km
Speed
3.074 km/s
True Right ascension
02h 46m 37s
True Declination
1° 23' 56"
Sunlit
Object was in daylight at epoch
Visualization orbit readout
Latitude
Unknown
Longitude
Unknown
Altitude
Unknown
Speed
Unknown
Apparent Right ascension
Unknown
Apparent Declination
Unknown
Sunlit
N/A
Visualization observer readout
Local Sidereal Time
14:29:35
Azimuth
Unknown
Elevation
Unknown
Doppler factor
Unknown
Orbital elements
Apogee altitude
35,801.387 km
Perigee altitude
35,770.093 km
Semi-major axis
42,163.877 km
Eccentricity
0.00037
Inclination
2.1376°
RAAN
262.355°
Arg. of periapsis
27.9898°
True anomaly
111.32962°
Mean anomaly
111.29°
Eccentric anomaly
111.30981°
Mean motion
0.25069 °/min
Orbital period
1,436.05 mins
BSTAR
0
Loading maneuver chart data...
Computing Atmospheric mass density...
Loading historical data...
Loading historical data...
Loading historical data...
Loading historical data...
Loading historical data...
Loading historical data...
Loading historical data...
Other satellites on launch #95 in the year 1971 (1971-11-03 UTC)

Documentation

Showing up to 5 results
|